Location: Alma
(38.7220°N, 88.9090°W)
Time: 17:23:14
(UTC-06:00)

Vanguard 2 Rocket - Pass Details

Date: 21 November 2019
Orbit: 554 x 3326 km, 32.9° (Epoch: 08 December)

Event Time Altitude Azimuth Distance (km) Brightness Sun altitude
Rises 03:10:25 0° 264° (W) 2,904 - -41.4°
Reaches altitude 10° 03:12:27 10° 257° (WSW) 2,137 - -41.1°
Maximum altitude 03:17:03 44° 185° (S) 1,214 - -40.2°
Exits shadow 03:19:56 29° 134° (SE) 1,836 8.6 -39.6°
Drops below altitude 10° 03:24:18 10° 116° (ESE) 3,366 10.3 -38.8°
Sets 03:28:19 0° 111° (ESE) 4,812 11.4 -38.0°
